RH
48 46 41 46 47 48 50 50 49 49 53 58 62 65 68 66 65 63 66 66 64 64 57 49 63 73 72 68 64 63 60 63 65 68 73 77 77 77 77 81 76 81 90
50 48 46 40 42 44 46 49 48 49 51 55 63 71 72 66 65 67 59 59 55 48 43 42 43 53 68 68 70 77 79 69 69 70 72 75 77 79 83 83 80 76 83
54 53 49 41 35 40 46 45 47 54 61 64 66 70 73 72 70 65 63 69 64 59 50 45 47 45 41 41 46 59 68 75 75 73 77 82 81 83 83 80 76 77 82
59 53 55 50 42 36 39 42 48 52 58 66 67 71 76 76 71 70 76 69 58 48 45 51 59 60 57 58 58 56 56 52 53 59 64 64 72 82 83 74 71 72 79
65 66 54 55 51 45 40 38 38 45 56 63 68 73 74 73 71 73 65 57 47 48 62 69 68 70 74 71 74 74 76 73 68 63 65 68 69 63 61 64 67 72 78
66 64 58 55 55 53 46 41 39 43 52 58 62 65 67 72 72 57 51 50 65 73 74 76 74 77 83 86 84 84 83 82 80 76 74 74 72 73 72 72 73 79 82
66 69 72 75 59 62 52 47 43 48 51 54 57 60 59 55 47 46 51 63 64 71 73 76 81 82 83 83 84 84 86 87 82 80 80 80 81 78 88 93 96 97 94
82 85 83 87 79 72 67 50 49 52 52 51 51 59 55 46 46 56 71 77 80 75 73 73 75 79 79 80 82 87 85 83 84 82 83 84 85 86 83 85 88 94 96
89 88 88 92 86 87 85 73 56 51 50 51 50 49 47 56 65 72 80 83 83 81 84 86 84 78 80 79 80 82 82 83 88 92 93 93 92 91 91 90 92 95 95
80 79 83 86 92 89 98 85 79 74 64 59 56 53 62 71 84 90 86 84 86 87 89 91 89 88 88 91 88 89 87 87 91 89 89 89 88 89 88 86 90 96 95
78 81 85 79 84 90 92 94 88 89 88 85 79 68 79 92 95 92 88 85 85 84 83 84 87 88 91 89 87 87 86 83 80 78 79 80 82 80 81 85 85 87 86
74 73 81 95 95 92 94 96 93 92 92 99 98 97 98 96 92 89 88 88 88 81 80 82 82 78 76 76 75 75 74 71 69 69 70 71 73 73 75 72 73 71 70
75 75 83 88 99 96 99 99 98 99 97 95 97 96 94 93 91 85 78 76 76 79 75 72 70 70 68 66 64 64 67 68 63 61 61 59 59 60 61 60 58 55 53
80 78 82 89 90 88 87 90 89 83 83 84 85 87 83 84 81 81 79 74 71 69 64 63 62 63 63 62 60 58 58 58 60 60 58 54 54 55 54 53 49 45 43
92 90 85 84 87 90 90 91 88 88 92 93 87 86 85 85 85 82 79 74 72 69 65 62 61 59 58 56 55 55 55 54 54 53 50 47 43 38 32 30 29 26 25
90 94 91 85 82 84 83 82 85 86 86 89 89 86 82 80 80 78 74 73 68 64 62 58 55 53 52 49 45 41 36 31 28 26 24 23 23 23 23 23 23 22 22
79 85 84 79 77 75 75 78 83 83 83 83 81 83 83 77 73 67 59 58 54 50 47 46 42 38 33 27 24 23 22 22 23 24 24 24 22 19 18 17 17 18 17
78 74 77 75 81 81 79 77 79 83 86 86 81 74 72 68 64 57 53 55 53 49 45 40 30 24 23 21 21 22 23 24 24 24 23 21 20 19 18 18 17 16 15
79 81 81 82 83 82 81 78 79 78 77 74 70 65 60 56 54 54 52 49 42 31 27 27 27 26 24 23 23 25 27 27 28 26 24 23 21 20 19 19 18 18 17
68 72 70 72 74 74 75 72 67 65 61 59 60 61 57 54 50 44 35 30 29 28 26 25 25 28 27 26 26 28 28 28 27 25 25 25 23 22 21 21 21 20 21
53 54 57 60 59 58 64 65 63 59 56 54 53 52 48 39 36 36 34 32 29 25 24 24 26 30 33 35 35 34 29 26 26 26 27 28 28 27 27 26 27 28 29
57 55 57 57 61 65 62 58 56 53 49 46 42 42 40 37 34 34 33 33 34 35 35 37 37 38 36 33 32 32 32 30 30 33 33 33 32 30 29 31 32 34 37
64 62 60 57 52 51 54 52 47 45 43 42 39 37 34 34 36 37 39 41 43 43 45 43 41 39 37 37 38 38 36 35 36 36 36 38 38 38 36 35 45 45 45
50 49 42 39 41 43 44 48 46 45 45 41 36 37 38 41 43 45 48 49 49 51 48 47 47 44 44 44 42 38 36 33 34 38 38 37 37 39 42 45 47 51 53
40 46 47 47 37 36 40 43 43 43 45 46 47 48 50 49 49 49 52 55 55 54 54 55 53 51 50 45 39 34 31 28 26 25 28 34 38 44 50 49 54 52 48
35 37 37 38 41 52 56 56 57 56 56 54 54 54 54 54 57 56 58 60 61 59 55 55 51 50 48 41 27 20 16 14 15 21 27 30 37 42 48 54 58 57 48